Miscellaneous Local Product
Issued by NWS North Platte, NE

Home | Current Version | Previous Version | Text Only | Print | Product List | Glossary On
Versions: 1 2 3 4 5 6 7 8 9 10 11 12 13 14 15 16 17 18 19 20 21 22 23 24 25 26 27 28 29 30 31 32 33 34 35 36 37 38 39 40 41 42 43 44 45 46 47 48 49 50
000
AXUS43 KLBF 011310
MISLBF


WESTERN AND NORTH CENTRAL NEBRASKA HOURLY WEATHER ROUNDUP
NATIONAL WEATHER SERVICE NORTH PLATTE NE
800 AM CDT WED OCT 01 2014

***STATIONS NOT REPORTING VARIABLES SUCH AS SKY/WEATHER OR
PRESSURE ARE PROVIDED BY THE NEBRASKA DEPARTMENT OF
ROADS...RAWS...AND APRS NETWORKS...AND ARE NOT UNDER
NATIONAL WEATHER SERVICE QUALITY CONTROL***

...OBSERVATIONS IN AND NEAR THE EASTERN PANHANDLE OF NEBRASKA...

CITY           SKY/WX    TMP DP  RH WIND       PRES   REMARKS
PINE RIDGE     CLEAR     43  41  93 CALM      29.82R
CHADRON        CLEAR     47  43  86 W5        29.83R
ALLIANCE       CLEAR     40  39  97 W10       29.85R WCI  33
SIDNEY         PTCLDY    48  40  73 NW15      29.86S
WHITECLAY        N/A     41  39  93 SE5         N/A
RUSHVILLE        N/A     46  42  88 SE7         N/A
CRESCENT LAKE    N/A     46  43  89 NW7         N/A
LISCO            N/A     43  39  86 CALM        N/A
BIG SPRINGS      N/A     48  45  89 W3          N/A
$$

...OBSERVATIONS IN NORTH CENTRAL NEBRASKA...

CITY           SKY/WX    TMP DP  RH WIND       PRES   REMARKS
VALENTINE      PTCLDY    47  45  93 NW6       29.79R
THEDFORD       PTCLDY    50  46  87 W3        29.80S
AINSWORTH      MOCLDY    51  47  84 W7        29.78R
O`NEILL        CLOUDY    60  54  81 W5        29.74R
ORD            MOCLDY    55  53  93 CALM      29.73R
BROKEN BOW     CLOUDY    55  52  89 NW5       29.76R
SPRINGVIEW       N/A     50  47  88 CALM        N/A
ROSE             N/A     56  52  86 W9          N/A
NEWPORT          N/A     53  49  87 W5          N/A
SARGENT          N/A     56  52  87 CALM        N/A
COMSTOCK         N/A     60  54  78 W5          N/A
CHAMBERS         N/A     57  55  94 CALM        N/A
EWING            N/A     60  58  95 CALM        N/A
$$

...OBSERVATIONS IN SOUTHWEST NEBRASKA AND FAR NORTHEAST COLORADO...

CITY           SKY/WX    TMP DP  RH WIND       PRES   REMARKS
WRAY           FAIR      45  43  93 NW6       29.85R
HOLYOKE        FAIR      54  45  71 W7        29.85R
IMPERIAL       CLEAR     50  43  77 NW7       29.83R
OGALLALA       CLEAR     44  43  97 W5        29.83R
NORTH PLATTE   CLEAR     45  43  93 CALM      29.80R
MCCOOK         FOG       51  50  96 NW7       29.80R VSB 1/4
LEXINGTON      FOG       49  49  98 CALM      29.76S VSB<1/4
PAXTON           N/A     49  46  88 CALM        N/A
SUTHERLAND       N/A     43  41  91 W5          N/A
BRADY            N/A     49  46  89 CALM        N/A
GOTHENBURG       N/A     54  49  82 CALM        N/A
CALLAWAY         N/A     49  47  94 NW3         N/A
$$

...SOME WEATHER OBSERVATIONS FROM AROUND THE REGION...

CITY           SKY/WX    TMP DP  RH WIND       PRES   REMARKS
DENVER         MOCLDY    41  37  86 SE7       29.90R
LARAMIE        PTCLDY    36  31  82 SW6       29.94S WCI  31
CHEYENNE       CLOUDY    47  36  65 NW7       29.91R
SCOTTSBLUFF    CLEAR     44  43  96 NW6       29.87R
RAPID CITY     MOCLDY    49  44  83 N10       29.79R
PIERRE         PTCLDY    53  47  79 W12       29.73R
WINNER         FAIR      51  46  83 W8        29.76R
SIOUX FALLS    CLOUDY    63  61  93 S8        29.73S
OMAHA          LGT RAIN  62  59  90 SE3       29.73S
GRAND ISLAND   PTCLDY    57  56  96 E5        29.75R FOG
KANSAS CITY    CLOUDY    65  64  97 SE10      29.78S
WICHITA        PTCLDY    69  64  84 SE7       29.74R
HAYS           CLOUDY    57  54  88 N3        29.76R VSB<1/4
LIBERAL        CLEAR     54  45  71 NW13      29.77R
GOODLAND       CLEAR     46  43  89 W7        29.86R
$$



USA.gov is the U.S. government's official web portal to all federal, state and local government web resources and services.